Date,TemperatureHighF,TemperatureAvgF,TemperatureLowF,DewpointHighF,DewpointAvgF,DewpointLowF,HumidityHigh,HumidityAvg,HumidityLow,PressureMaxIn,PressureMinIn,WindSpeedMaxMPH,WindSpeedAvgMPH,GustSpeedMaxMPH,PrecipitationSumIn
2013-3-1,33.9,30.6,26.6,28.4,26.0,21.8,90,83,75,29.65,29.50,3,2,14,0.00
2013-3-2,32.1,28.4,24.4,24.9,22.4,19.9,85,78,72,29.65,29.60,5,2,16,0.00
2013-3-3,32.7,27.2,21.9,23.3,20.1,15.4,83,75,60,29.62,29.57,5,1,12,0.00
2013-3-4,38.3,28.0,16.3,26.9,20.0,15.1,95,74,49,29.65,29.52,2,1,8,0.00
2013-3-5,32.8,30.5,27.7,29.4,27.3,24.7,98,88,74,29.55,29.29,6,2,13,0.00
2013-3-6,38.4,32.3,26.9,31.9,29.3,25.9,97,89,72,29.77,29.41,12,2,13,0.21
2013-3-7,40.9,33.0,20.4,32.3,28.3,19.1,97,84,57,29.92,29.76,9,1,9,0.12
2013-3-8,44.6,28.0,12.2,31.2,22.0,10.5,98,80,49,30.00,29.87,5,0,6,0.00
2013-3-9,42.8,35.4,23.9,34.3,29.5,20.4,89,79,66,29.86,29.42,6,0,6,0.00
2013-3-10,57.3,47.3,37.9,49.2,41.9,34.0,97,82,67,29.42,29.17,14,1,14,0.36
2013-3-11,51.6,43.6,34.1,49.4,41.7,31.5,97,93,85,29.25,29.03,18,3,18,0.17
2013-3-12,37.6,33.0,30.0,31.9,28.6,25.0,95,84,64,29.46,29.25,19,6,19,0.00
2013-3-13,32.2,28.5,25.2,26.5,20.3,14.2,92,72,54,29.80,29.46,18,4,18,0.00
2013-3-14,41.5,32.7,25.9,30.0,22.8,15.4,91,67,49,29.81,29.61,11,2,11,0.00
2013-3-15,43.5,37.7,27.7,35.4,32.5,26.6,97,82,71,29.61,29.41,8,2,8,0.00
2013-3-16,43.4,43.4,43.4,35.3,35.3,35.3,73,73,73,29.42,29.42,2,2,0,0.00
2013-3-17,43.4,43.4,43.4,35.3,35.3,35.3,73,73,73,29.42,29.42,2,2,0,0.00
2013-3-18,43.4,43.4,43.4,35.3,35.3,35.3,73,73,73,29.42,29.42,2,2,0,0.00
2013-3-19,43.4,43.4,43.4,35.3,35.3,35.3,73,73,73,29.42,29.42,2,2,0,0.00
2013-3-20,43.5,41.7,28.5,35.5,34.5,27.5,97,76,71,29.47,29.41,4,2,8,0.00
2013-3-21,43.4,43.4,43.4,35.3,35.3,35.3,73,73,73,29.42,29.42,2,2,0,0.00
2013-3-22,36.5,28.3,18.2,22.1,19.3,15.5,92,70,45,29.58,29.52,5,1,12,0.00
2013-3-23,38.9,28.9,18.9,28.0,23.3,17.7,97,81,54,29.64,29.53,3,1,13,0.00
2013-3-24,37.8,32.2,24.4,27.7,25.8,22.2,92,78,62,29.54,29.13,8,3,17,0.00
2013-3-25,36.8,33.5,30.8,30.6,27.9,24.0,84,79,72,29.51,29.15,5,4,18,0.00
2013-3-26,38.1,34.7,31.2,32.6,31.2,29.9,96,87,78,29.72,29.51,4,2,14,0.05
2013-3-27,43.4,36.2,23.9,34.8,28.9,20.9,96,76,46,29.80,29.72,4,2,11,0.00
2013-3-28,47.5,33.6,21.7,32.0,24.0,19.3,96,71,36,29.83,29.78,4,1,10,0.00
2013-3-29,49.7,31.1,21.2,32.3,23.3,19.6,97,77,36,29.82,29.79,8,1,8,0.00